{"data":{"norad_id":66564,"intl_designator":"2025-268H","name":"STARLINK-35358","alt_names":[],"object_type":"PAYLOAD","status":"ACTIVE","operator":null,"country":"US","launch_date":"2025-11-21","launch_site_code":"AFETR","launch_vehicle":null,"mission":null,"orbit_class":"UNKNOWN","rcs_meters":null,"size_class":null,"mass_kg":null,"dimensions":null,"purposes":["comms"],"wikipedia_slug":null,"has_3d_model":false,"image_url":null,"decayed_at":null,"tle_current":{"epoch":"2026-05-24T17:56:59.556192Z","epoch_age_seconds":107041,"freshness":"FRESH","line1":"1 66564U 25268H   26144.74791153  .00009098  00000+0  33967-3 0  9990","line2":"2 66564  43.0015 277.3766 0001168 272.4987  87.5731 15.27585264 29596","mean_motion":15.27585264,"eccentricity":0.0001168,"inclination_deg":43.0015,"raan_deg":277.3766,"arg_perigee_deg":272.4987,"mean_anomaly_deg":87.5731,"bstar":0.00033967,"rev_number":2959,"period_min":94.266423874065,"perigee_km":482.23194908022,"apogee_km":483.83471847019,"semimajor_km":6861.1703337752,"source":"CELESTRAK","updated_at":"2026-05-25T13:38:21.257516Z"}}}